User: anonymous   Login
Location: Domont
(49.0278°N, 2.3264°E)
Time: 17:23:47
(UTC+00:00)
Language:

deb Kosmos-249 - Orbit

View from above orbital plane
View from above orbital plane
View from above satellite
View from above satellite

Ground track
Ground track

The orbit data is extracted from the following two-line orbital elements,

1 06176U 68091CG  22222.08662024 -.00000041  00000-0  47890-4 0  9990
2 06176  65.7254 107.5776 0479539 272.2434  82.3780 13.07248000975177
Epoch (UTC): 10 August 2022 02:04:43
Eccentricity: 0.0479539
inclination: 65.7254°
perigee height: 869 km
apogee height: 1599 km
right ascension of ascending node: 107.5776°
argument of perigee: 272.2434°
revolutions per day: 13.07248000
mean anomaly at epoch: 82.3780°
orbit number at epoch: 97517

The dashed part of the orbit path shows where the satellite is in the earth's shadow,  

DLR